Weather Roundup
Issued by NWS Springfield, MO

Home | Current Version | Previous Version | Text Only | Print | Product List | Glossary On
Versions: 1 2 3 4 5 6 7 8 9 10 11 12 13 14 15 16 17 18 19 20 21 22 23 24 25 26 27 28 29 30 31 32 33 34 35 36 37 38 39 40 41 42 43 44 45 46 47 48 49 50
000
NZUS99 KSGF 090407
HRRSGF

HOURLY WEATHER
NATIONAL WEATHER SERVICE SPRINGFIELD MO
1000 PM CST MON FEB 08 2016

......SGF CWA......

CITY           SKY/WX    TMP DP  RH WIND       PRES   REMARKS
SPRINGFIELD    CLEAR     29  13  51 NW15G23   30.03S WCI  18
JOPLIN         CLOUDY    31  14  49 NW10      30.12S WCI  22
WEST PLAINS    CLOUDY    27  17  66 NW14G22   29.98F WCI  16
ROLLA          LGT SNOW  22  17  81 NW14G24   29.94F WCI   9
OSAGE BEACH    CLOUDY    27  12  54 NW8G16    30.01F WCI  18

......SURROUNDING SGF CWA......

CITY           SKY/WX    TMP DP  RH WIND       PRES   REMARKS
CHANUTE        PTCLDY    33  18  53 NW14      30.14F WCI  23
PARSONS        PTCLDY    34  18  52 NW10      30.16F WCI  26
COFFEYVILLE    PTCLDY    35  17  47 NW12      30.17F WCI  27
EMPORIA        PTCLDY    33  17  51 NW15G22   30.15S WCI  23
GROVE OK       CLOUDY    36  18  48 NW9       30.16S WCI  29
ROGERS AR      PTCLDY    32  15  49 NW17G25   30.09F WCI  21
SILOAM SPRINGS CLOUDY    34  10  37 NW14G21   30.12S WCI  24
HARRISON AR    CLEAR     30  14  51 NW13G24   30.03S WCI  20
NEAR YELLVILLE PTCLDY   N/A N/A N/A NW18G29   30.01F

......KANSAS AND MISSOURI......

CITY           SKY/WX    TMP DP  RH WIND       PRES   REMARKS
KANSAS CTY INT CLOUDY    26  17  68 NW7       30.08S WCI  18
DOWNTOWN KC    CLOUDY    29  16  58 NW7       30.09F WCI  22
COLUMBIA       CLOUDY    23  12  62 NW21      29.99S WCI   8
SEDALIA        CLOUDY    27  15  61 NW20G30   30.03F WCI  13
ST JOSEPH      CLOUDY    27  17  66 NW10      30.08F WCI  17
ST LOUIS       FLURRIES  24  12  60 NW17G28   29.94F WCI  11
SPIRIT OF STL  CLOUDY    24  12  60 NW14      29.95F WCI  12
KIRKSVILLE     FLURRIES  20  12  71 NW15G21   29.97F WCI   6
WICHITA        PTCLDY    34  19  54 NW14      30.22R WCI  25
TOPEKA         CLOUDY    33  18  53 NW14      30.13S WCI  23
OLATHE         PTCLDY    28  16  60 NW15G21   30.09S WCI  16

......TENNESSEE......

CITY           SKY/WX    TMP DP  RH WIND       PRES   REMARKS
MEMPHIS        CLOUDY    37  19  48 NW12G22   30.00S WCI  29
NASHVILLE      LGT SNOW  30  24  78 NW9       29.90S WCI  22

......ARKANSAS.......

CITY           SKY/WX    TMP DP  RH WIND       PRES   REMARKS
FAYETTEVILLE   PTCLDY    32  14  47 NW9       30.11S WCI  24
FT SMITH       PTCLDY    39  10  30 NW12      30.16R WCI  32
LITTLE ROCK    CLEAR     37  17  44 VRB5      30.08S WCI  33

......OKLAHOMA.......

CITY           SKY/WX    TMP DP  RH WIND       PRES   REMARKS
TULSA          CLEAR     37  17  44 NW9       30.19S WCI  30
PONCA CITY     CLEAR     33  17  51 MISG      30.23F
MCALESTER      PTCLDY    40  13  33 NW9       30.21S WCI  34
OKLAHOMA CITY  PTCLDY    36  14  40 N15       30.26R WCI  27

......IOWA............

CITY           SKY/WX    TMP DP  RH WIND       PRES   REMARKS
DES MOINES     FLURRIES  17   7  64 N23G31    30.00S WCI  -1
QUAD CITIES    CLOUDY    18   9  68 NW16G25   29.87F WCI   3

......ILLINOIS........

CITY           SKY/WX    TMP DP  RH WIND       PRES   REMARKS
QUINCY         FLURRIES  18  11  74 NW18      29.93F WCI   2
CHICAGO        LGT SNOW  23  19  85 W13       29.74S FOG     WCI  11



USA.gov is the U.S. government's official web portal to all federal, state and local government web resources and services.